VLG798Z LEGR-LEPA

Flight info

Callsign VLG798Z
Flight time 1h 2m
Altitude 36000
Route VIBAS N865 UNTOS N851 RUXET
Aircraft A320/M-SDE3FGHIRWY/LB1

Departure

Time 2026-04-22 15:22
Airport F.G.L. Airport Granada-Jaén Airport (LEGR)

Arrival

Time 2026-04-22 16:24
Airport Palma de Mallorca Airport (LEPA)
Time Latitude Longitude Altitude Speed Heading
2026-04-22 15:07 37.18617 -3.77561 1869 ft 0 kts 270°
2026-04-22 15:17 37.18617 -3.77566 1869 ft 3 kts 270°
2026-04-22 15:17 37.18644 -3.77613 1868 ft 10 kts 338°
2026-04-22 15:18 37.18705 -3.77587 1865 ft 9 kts 65°
2026-04-22 15:18 37.18710 -3.77487 1868 ft 18 kts 90°
2026-04-22 15:18 37.18710 -3.77340 1868 ft 16 kts 88°
2026-04-22 15:18 37.18712 -3.77204 1866 ft 15 kts 89°
2026-04-22 15:19 37.18714 -3.77075 1866 ft 14 kts 89°
2026-04-22 15:19 37.18714 -3.76960 1866 ft 14 kts 89°
2026-04-22 15:19 37.18715 -3.76794 1863 ft 24 kts 89°
2026-04-22 15:19 37.18718 -3.76582 1860 ft 25 kts 90°
2026-04-22 15:20 37.18717 -3.76372 1858 ft 23 kts 90°
2026-04-22 15:20 37.18720 -3.76192 1853 ft 16 kts 83°
2026-04-22 15:20 37.18798 -3.76141 1851 ft 10 kts 358°
2026-04-22 15:20 37.18860 -3.76145 1851 ft 8 kts 352°
2026-04-22 15:21 37.18886 -3.76186 1852 ft 5 kts 272°
2026-04-22 15:21 37.18886 -3.76221 1852 ft 5 kts 270°
2026-04-22 15:21 37.18886 -3.76427 1856 ft 55 kts 269°
2026-04-22 15:21 37.18879 -3.77178 1869 ft 115 kts 269°
2026-04-22 15:22 37.18869 -3.78393 1893 ft 159 kts 271°
2026-04-22 15:22 37.18863 -3.79793 2439 ft 162 kts 270°
2026-04-22 15:22 37.18842 -3.81211 3109 ft 164 kts 268°
2026-04-22 15:22 37.18794 -3.82653 3744 ft 169 kts 268°
2026-04-22 15:23 37.18741 -3.84193 4183 ft 185 kts 267°
2026-04-22 15:23 37.18685 -3.85874 4613 ft 201 kts 267°
2026-04-22 15:23 37.18628 -3.87699 5019 ft 218 kts 267°
2026-04-22 15:23 37.18570 -3.89674 5401 ft 237 kts 266°
2026-04-22 15:24 37.18509 -3.91789 6070 ft 246 kts 266°
2026-04-22 15:24 37.18450 -3.93945 6920 ft 248 kts 266°
2026-04-22 15:24 37.18391 -3.96118 7763 ft 250 kts 265°
2026-04-22 15:24 37.18333 -3.98306 8592 ft 252 kts 265°
2026-04-22 15:25 37.18386 -4.00509 9416 ft 257 kts 278°
2026-04-22 15:25 37.19079 -4.02596 10216 ft 265 kts 300°
2026-04-22 15:25 37.20418 -4.04242 10903 ft 278 kts 324°
2026-04-22 15:25 37.22225 -4.05117 11558 ft 290 kts 348°
2026-04-22 15:26 37.24260 -4.04984 12245 ft 299 kts 15°
2026-04-22 15:26 37.26092 -4.03750 12919 ft 304 kts 43°
2026-04-22 15:26 37.27329 -4.01627 13586 ft 303 kts 71°
2026-04-22 15:26 37.27962 -3.99059 13995 ft 315 kts 78°
2026-04-22 15:27 37.28543 -3.96335 14281 ft 331 kts 78°
2026-04-22 15:27 37.29199 -3.93481 14563 ft 349 kts 75°
2026-04-22 15:27 37.29971 -3.90514 14830 ft 366 kts 73°
2026-04-22 15:27 37.30820 -3.87433 15106 ft 380 kts 72°
2026-04-22 15:28 37.31709 -3.84273 15610 ft 386 kts 72°
2026-04-22 15:28 37.32604 -3.81081 16233 ft 389 kts 72°
2026-04-22 15:28 37.33497 -3.77852 16854 ft 392 kts 72°
2026-04-22 15:28 37.34384 -3.74596 17455 ft 396 kts 71°
2026-04-22 15:29 37.35271 -3.71305 18052 ft 399 kts 71°
2026-04-22 15:29 37.36156 -3.67987 18591 ft 403 kts 71°
2026-04-22 15:29 37.37050 -3.64630 19140 ft 405 kts 71°
2026-04-22 15:30 37.38855 -3.57861 20170 ft 412 kts 71°
2026-04-22 15:30 37.39770 -3.54444 20687 ft 414 kts 71°
2026-04-22 15:30 37.40693 -3.50994 21194 ft 418 kts 71°
2026-04-22 15:30 37.41621 -3.47519 21690 ft 421 kts 71°
2026-04-22 15:31 37.42555 -3.44020 22209 ft 424 kts 70°
2026-04-22 15:31 37.43493 -3.40493 22711 ft 427 kts 70°
2026-04-22 15:31 37.44435 -3.36937 23203 ft 430 kts 70°
2026-04-22 15:31 37.45382 -3.33357 23654 ft 433 kts 70°
2026-04-22 15:32 37.46332 -3.29757 24042 ft 435 kts 70°
2026-04-22 15:32 37.47285 -3.26128 24439 ft 437 kts 70°
2026-04-22 15:32 37.48245 -3.22487 24816 ft 439 kts 70°
2026-04-22 15:32 37.49209 -3.18830 25199 ft 441 kts 70°
2026-04-22 15:33 37.50175 -3.15155 25550 ft 443 kts 70°
2026-04-22 15:33 37.51146 -3.11459 25898 ft 445 kts 70°
2026-04-22 15:33 37.52119 -3.07753 26256 ft 447 kts 70°
2026-04-22 15:33 37.53098 -3.04022 26609 ft 449 kts 70°
2026-04-22 15:34 37.54077 -3.00279 26953 ft 451 kts 70°
2026-04-22 15:34 37.55058 -2.96519 27283 ft 453 kts 70°
2026-04-22 15:34 37.56042 -2.92737 27632 ft 455 kts 70°
2026-04-22 15:34 37.57031 -2.88939 27957 ft 457 kts 70°
2026-04-22 15:35 37.57688 -2.86417 28167 ft 458 kts 70°
2026-04-22 15:35 37.59017 -2.81290 28592 ft 461 kts 70°
2026-04-22 15:35 37.60013 -2.77440 28889 ft 463 kts 70°
2026-04-22 15:35 37.61013 -2.73571 29201 ft 465 kts 70°
2026-04-22 15:36 37.62015 -2.69683 29505 ft 467 kts 70°
2026-04-22 15:36 37.63020 -2.65781 29796 ft 469 kts 70°
2026-04-22 15:36 37.64020 -2.61915 30052 ft 471 kts 70°
2026-04-22 15:36 37.65048 -2.57931 30290 ft 472 kts 70°
2026-04-22 15:37 37.66062 -2.53980 30514 ft 474 kts 70°
2026-04-22 15:37 37.67077 -2.50019 30744 ft 475 kts 70°
2026-04-22 15:37 37.68093 -2.46048 30971 ft 476 kts 70°
2026-04-22 15:37 37.69113 -2.42061 31177 ft 477 kts 70°
2026-04-22 15:38 37.70119 -2.38128 31408 ft 477 kts 70°
2026-04-22 15:38 37.72138 -2.30171 32011 ft 475 kts 71°
2026-04-22 15:38 37.73141 -2.26197 32304 ft 474 kts 71°
2026-04-22 15:39 37.74140 -2.22234 32592 ft 473 kts 71°
2026-04-22 15:39 37.75136 -2.18282 32879 ft 472 kts 71°
2026-04-22 15:39 37.76133 -2.14337 33165 ft 471 kts 71°
2026-04-22 15:39 37.77129 -2.10407 33462 ft 469 kts 71°
2026-04-22 15:40 37.78123 -2.06477 33767 ft 468 kts 71°
2026-04-22 15:40 37.79110 -2.02560 34032 ft 468 kts 71°
2026-04-22 15:40 37.80092 -1.98646 34274 ft 467 kts 71°
2026-04-22 15:40 37.81072 -1.94735 34510 ft 466 kts 71°
2026-04-22 15:41 37.82049 -1.90834 34742 ft 465 kts 71°
2026-04-22 15:41 37.83024 -1.86939 34961 ft 464 kts 71°
2026-04-22 15:41 37.83996 -1.83059 35171 ft 463 kts 71°
2026-04-22 15:41 37.84966 -1.79174 35388 ft 462 kts 71°
2026-04-22 15:42 37.85930 -1.75303 35592 ft 461 kts 71°
2026-04-22 15:42 37.86890 -1.71433 35795 ft 460 kts 71°
2026-04-22 15:42 37.87845 -1.67573 35933 ft 459 kts 71°
2026-04-22 15:42 37.88791 -1.63729 35972 ft 455 kts 71°
2026-04-22 15:43 37.90698 -1.56107 35963 ft 453 kts 67°
2026-04-22 15:43 37.93307 -1.48881 35946 ft 451 kts 62°
2026-04-22 15:44 37.95975 -1.41699 35947 ft 451 kts 62°
2026-04-22 15:44 37.98630 -1.34512 35955 ft 450 kts 62°
2026-04-22 15:45 38.01278 -1.27322 35962 ft 450 kts 62°
2026-04-22 15:45 38.03922 -1.20129 35963 ft 450 kts 62°
2026-04-22 15:46 38.06555 -1.12931 35966 ft 450 kts 62°
2026-04-22 15:46 38.09167 -1.05782 35971 ft 449 kts 62°
2026-04-22 15:47 38.11788 -0.98585 35977 ft 449 kts 62°
2026-04-22 15:47 38.14411 -0.91382 35983 ft 449 kts 62°
2026-04-22 15:48 38.17026 -0.84182 35979 ft 449 kts 62°
2026-04-22 15:48 38.19635 -0.76979 35996 ft 449 kts 62°
2026-04-22 15:49 38.22243 -0.69767 35989 ft 449 kts 62°
2026-04-22 15:49 38.24843 -0.62555 35994 ft 448 kts 62°
2026-04-22 15:50 38.27421 -0.55326 35994 ft 449 kts 63°
2026-04-22 15:50 38.29822 -0.47988 35994 ft 450 kts 65°
2026-04-22 15:51 38.32118 -0.40577 35996 ft 450 kts 65°
2026-04-22 15:51 38.34428 -0.33174 35998 ft 450 kts 65°
2026-04-22 15:52 38.36777 -0.25792 35995 ft 449 kts 64°
2026-04-22 15:52 38.39218 -0.18465 36000 ft 449 kts 63°
2026-04-22 15:53 38.41680 -0.11202 36003 ft 449 kts 63°
2026-04-22 15:53 38.44132 -0.03874 36011 ft 449 kts 64°
2026-04-22 15:54 38.46548 0.03480 36006 ft 450 kts 64°
2026-04-22 15:54 38.48904 0.10873 36003 ft 450 kts 65°
2026-04-22 15:55 38.51259 0.18277 36005 ft 450 kts 64°
2026-04-22 15:55 38.53624 0.25683 35997 ft 451 kts 64°
2026-04-22 15:56 38.55595 0.31842 36000 ft 451 kts 64°
2026-04-22 15:56 38.57965 0.39263 36001 ft 451 kts 65°
2026-04-22 15:57 38.60323 0.46699 36000 ft 451 kts 65°
2026-04-22 15:57 38.62675 0.54133 36004 ft 451 kts 65°
2026-04-22 15:58 38.65028 0.61585 36006 ft 452 kts 65°
2026-04-22 15:58 38.67054 0.69198 36004 ft 456 kts 77°
2026-04-22 15:59 38.67968 0.77239 36002 ft 457 kts 79°
2026-04-22 15:59 38.68863 0.85305 36008 ft 457 kts 79°
2026-04-22 16:00 38.69754 0.93359 36010 ft 457 kts 80°
2026-04-22 16:00 38.70633 1.01435 36008 ft 458 kts 80°
2026-04-22 16:01 38.71503 1.09450 36005 ft 458 kts 80°
2026-04-22 16:01 38.72380 1.17577 35986 ft 459 kts 80°
2026-04-22 16:02 38.73256 1.25651 35365 ft 463 kts 80°
2026-04-22 16:02 38.73694 1.29748 34631 ft 464 kts 80°
2026-04-22 16:02 38.74122 1.33818 34108 ft 459 kts 81°
2026-04-22 16:03 38.74547 1.37862 33486 ft 456 kts 81°
2026-04-22 16:03 38.74966 1.41869 32931 ft 452 kts 81°
2026-04-22 16:03 38.75380 1.45838 32371 ft 448 kts 81°
2026-04-22 16:03 38.75791 1.49778 31822 ft 444 kts 81°
2026-04-22 16:04 38.76202 1.53681 31277 ft 441 kts 81°
2026-04-22 16:04 38.76611 1.57557 30740 ft 438 kts 81°
2026-04-22 16:04 38.77013 1.61404 30210 ft 435 kts 81°
2026-04-22 16:04 38.77412 1.65234 29637 ft 432 kts 81°
2026-04-22 16:05 38.77803 1.69022 29131 ft 427 kts 81°
2026-04-22 16:05 38.78188 1.72772 28624 ft 422 kts 81°
2026-04-22 16:05 38.78568 1.76476 28136 ft 417 kts 81°
2026-04-22 16:05 38.78944 1.80146 27666 ft 413 kts 81°
2026-04-22 16:06 38.79312 1.83777 27200 ft 409 kts 81°
2026-04-22 16:06 38.79678 1.87379 26758 ft 405 kts 79°
2026-04-22 16:06 38.80322 1.90848 26336 ft 398 kts 68°
2026-04-22 16:06 38.81426 1.94061 25921 ft 390 kts 58°
2026-04-22 16:07 38.82923 1.96925 25500 ft 383 kts 49°
2026-04-22 16:07 38.84566 1.99592 25077 ft 380 kts 49°
2026-04-22 16:07 38.86186 2.02253 24643 ft 377 kts 49°
2026-04-22 16:07 38.87786 2.04902 24213 ft 374 kts 49°
2026-04-22 16:08 38.89351 2.07498 23783 ft 372 kts 49°
2026-04-22 16:08 38.90926 2.10120 23299 ft 370 kts 49°
2026-04-22 16:08 38.92485 2.12717 22850 ft 366 kts 49°
2026-04-22 16:08 38.94053 2.15327 22426 ft 362 kts 49°
2026-04-22 16:09 38.95568 2.17844 21984 ft 359 kts 49°
2026-04-22 16:09 38.97093 2.20371 21554 ft 356 kts 49°
2026-04-22 16:09 38.98606 2.22875 21140 ft 354 kts 49°
2026-04-22 16:09 39.00109 2.25368 20724 ft 351 kts 49°
2026-04-22 16:10 39.01599 2.27846 20307 ft 349 kts 49°
2026-04-22 16:10 39.03082 2.30310 19892 ft 348 kts 50°
2026-04-22 16:10 39.04559 2.32765 19473 ft 346 kts 50°
2026-04-22 16:10 39.06029 2.35217 19057 ft 345 kts 50°
2026-04-22 16:11 39.07493 2.37663 18646 ft 344 kts 50°
2026-04-22 16:11 39.08954 2.40105 18225 ft 344 kts 50°
2026-04-22 16:11 39.10410 2.42538 17778 ft 342 kts 50°
2026-04-22 16:11 39.11857 2.44957 17382 ft 340 kts 50°
2026-04-22 16:12 39.12344 2.45771 17245 ft 339 kts 50°
2026-04-22 16:12 39.13003 2.46871 17051 ft 338 kts 50°
2026-04-22 16:12 39.14432 2.49260 16663 ft 336 kts 50°
2026-04-22 16:12 39.15947 2.51523 16277 ft 331 kts 40°
2026-04-22 16:13 39.17746 2.53328 15891 ft 326 kts 30°
2026-04-22 16:13 39.19626 2.54953 15514 ft 324 kts 30°
2026-04-22 16:13 39.21493 2.56571 15133 ft 323 kts 30°
2026-04-22 16:13 39.23350 2.58183 14762 ft 322 kts 30°
2026-04-22 16:14 39.25202 2.59797 14381 ft 321 kts 30°
2026-04-22 16:14 39.27044 2.61407 14062 ft 318 kts 30°
2026-04-22 16:14 39.28874 2.63007 13690 ft 316 kts 30°
2026-04-22 16:14 39.30298 2.64250 13363 ft 315 kts 30°
2026-04-22 16:15 39.32114 2.65835 12929 ft 315 kts 31°
2026-04-22 16:15 39.33921 2.67417 12416 ft 311 kts 31°
2026-04-22 16:15 39.35684 2.68963 11912 ft 302 kts 31°
2026-04-22 16:15 39.37400 2.70469 11412 ft 294 kts 31°
2026-04-22 16:16 39.39070 2.71937 10938 ft 288 kts 31°
2026-04-22 16:16 39.40718 2.73384 10453 ft 285 kts 32°
2026-04-22 16:16 39.42190 2.75098 9986 ft 286 kts 45°
2026-04-22 16:16 39.43506 2.77017 9456 ft 284 kts 47°
2026-04-22 16:17 39.44797 2.78941 8909 ft 281 kts 47°
2026-04-22 16:17 39.46056 2.80813 8365 ft 279 kts 47°
2026-04-22 16:17 39.47332 2.82697 7837 ft 277 kts 47°
2026-04-22 16:17 39.48599 2.84560 7288 ft 275 kts 47°
2026-04-22 16:18 39.49855 2.86398 6774 ft 270 kts 47°
2026-04-22 16:18 39.51090 2.88197 6242 ft 264 kts 47°
2026-04-22 16:18 39.52304 2.89958 5694 ft 260 kts 47°
2026-04-22 16:18 39.53503 2.91697 5159 ft 258 kts 47°
2026-04-22 16:19 39.54698 2.93431 4623 ft 258 kts 47°
2026-04-22 16:19 39.55891 2.95165 4077 ft 256 kts 47°
2026-04-22 16:19 39.57068 2.96830 3672 ft 245 kts 41°
2026-04-22 16:19 39.58507 2.97826 3325 ft 233 kts
2026-04-22 16:20 39.60097 2.97662 3031 ft 229 kts 338°
2026-04-22 16:20 39.61456 2.96578 3003 ft 229 kts 315°
2026-04-22 16:20 39.62352 2.94973 2946 ft 214 kts 294°
2026-04-22 16:20 39.62714 2.93164 2830 ft 204 kts 272°
2026-04-22 16:21 39.62564 2.91374 2669 ft 198 kts 252°
2026-04-22 16:21 39.61962 2.89797 2422 ft 194 kts 238°
2026-04-22 16:21 39.61264 2.88320 2172 ft 190 kts 238°
2026-04-22 16:21 39.60598 2.86903 1933 ft 178 kts 238°
2026-04-22 16:22 39.59374 2.84302 1484 ft 166 kts 238°
2026-04-22 16:22 39.58803 2.83088 1290 ft 152 kts 238°
2026-04-22 16:22 39.58251 2.81917 1085 ft 152 kts 238°
2026-04-22 16:23 39.57150 2.79582 660 ft 151 kts 238°
2026-04-22 16:23 39.56604 2.78425 467 ft 151 kts 238°
2026-04-22 16:23 39.56061 2.77266 259 ft 150 kts 238°
2026-04-22 16:24 39.55518 2.76112 87 ft 149 kts 237°
2026-04-22 16:24 39.54721 2.74429 38 ft 50 kts 238°
2026-04-22 16:24 39.54586 2.74142 38 ft 32 kts 244°
2026-04-22 16:25 39.54551 2.73902 38 ft 14 kts 270°
2026-04-22 16:25 39.54551 2.73838 38 ft 0 kts 269°
2026-04-22 16:25 39.54551 2.73812 38 ft 9 kts 269°
2026-04-22 16:26 39.54553 2.73725 38 ft 10 kts 281°
2026-04-22 16:26 39.54584 2.73653 38 ft 9 kts 315°
2026-04-22 16:26 39.54634 2.73623 38 ft 7 kts 347°
2026-04-22 16:26 39.54678 2.73602 38 ft 6 kts 330°
2026-04-22 16:27 39.54712 2.73576 38 ft 5 kts 329°
2026-04-22 16:27 39.54735 2.73586 38 ft 5 kts 45°
2026-04-22 16:27 39.54753 2.73624 38 ft 2 kts 58°
2026-04-22 16:27 39.54755 2.73628 38 ft 0 kts 58°